Location: Sebastopol
(38.4021°N, 122.8239°W)
Time: 15:27:28
(UTC+00:00)

Cosmos 2195 Rocket - Pass Details

Date: 29 October 2020
Orbit: 948 x 993 km, 82.9° (Epoch: 30 November)

Event Time Altitude Azimuth Distance (km) Brightness Sun altitude
Rises 13:03:27 0° 193° (SSW) 3,660 7.4 -18.5°
Reaches altitude 10° 13:05:59 10° 195° (SSW) 2,710 6.7 -18.0°
Maximum altitude 13:12:09 68° 278° (W) 1,038 4.4 -16.8°
Drops below altitude 10° 13:18:18 10° 1° (N) 2,696 6.8 -15.6°
Sets 13:20:49 0° 5° (N) 3,641 7.5 -15.1°
